This is the latest recevied weather packets stored in our database for station/object KN6DHD. If no packets are shown the sender has not sent any weather packets the latest 10 day(s).
| Time | Temp. | Humidity | Pressure | Rain* | Wind** | Luminosity | Snow |
|---|---|---|---|---|---|---|---|
| 1777393111 | 13.89° C | 83% | 1021.5 hPa | 0 mm | - | 53 W/m² | - |
| 1777392807 | 13.89° C | 83% | 1021.3 hPa | 0 mm | - | 52 W/m² | - |
| 1777392503 | 13.89° C | 84% | 1021.4 hPa | 0 mm | - | 55 W/m² | - |
| 1777392199 | 13.33° C | 84% | 1021 hPa | 0 mm | - | 65 W/m² | - |
| 1777391894 | 13.33° C | 85% | 1021.3 hPa | 0 mm | - | 72 W/m² | - |
| 1777391589 | 13.33° C | 85% | 1021.3 hPa | 0 mm | - | 52 W/m² | - |
| 1777391285 | 13.33° C | 84% | 1021.3 hPa | 0 mm | - | 50 W/m² | - |
| 1777390982 | 13.33° C | 85% | 1021.3 hPa | 0 mm | - | 100 W/m² | - |
| 1777390678 | 12.78° C | 86% | 1021.1 hPa | 0 mm | - | 49 W/m² | - |
| 1777390369 | 12.78° C | 86% | 1021.1 hPa | 0 mm | - | 68 W/m² | - |
| 1777390064 | 12.78° C | 87% | 1021.1 hPa | 0 mm | - | 129 W/m² | - |
| 1777389762 | 12.78° C | 87% | 1021.2 hPa | 0 mm | - | 75 W/m² | - |
| 1777389458 | 12.22° C | 88% | 1021.2 hPa | 0 mm | - | 140 W/m² | - |
| 1777389156 | 12.22° C | 88% | 1021.1 hPa | 0 mm | - | 66 W/m² | - |
| 1777388854 | 12.22° C | 88% | 1020.9 hPa | 0 mm | - | 44 W/m² | - |
| 1777388551 | 11.67° C | 88% | 1020.9 hPa | 0 mm | - | 38 W/m² | - |
| 1777388247 | 11.67° C | 88% | 1020.8 hPa | 0 mm | - | 35 W/m² | - |
| 1777387942 | 11.67° C | 89% | 1020.7 hPa | 0 mm | - | 33 W/m² | - |
| 1777387638 | 11.11° C | 90% | 1020.8 hPa | 0 mm | - | 32 W/m² | - |
| 1777387335 | 11.11° C | 91% | 1020.7 hPa | 0 mm | - | 30 W/m² | - |
| 1777387035 | 10.56° C | 92% | 1020.5 hPa | 0 mm | - | 29 W/m² | - |
| 1777386731 | 10° C | 93% | 1020.7 hPa | 0 mm | - | 27 W/m² | - |
| 1777386429 | 10° C | 94% | 1020.7 hPa | 0 mm | - | 26 W/m² | - |
| 1777386125 | 9.44° C | 94% | 1020.6 hPa | 0 mm | - | 24 W/m² | - |
| 1777385822 | 9.44° C | 95% | 1020.7 hPa | 0 mm | - | 23 W/m² | - |
* Rain latest hour (hover to see other rain measurements)
** Current wind speed in m/s (hover to see current wind gust speed)